Regional Weather Roundup
Issued by NWS Cleveland, OH

Home | Current Version | Previous Version | Graphics & Text | Print | Product List | Glossary On
Versions: 1 2 3 4 5 6 7 8 9 10 11 12 13 14 15 16 17 18 19 20 21 22 23 24 25 26 27 28 29 30 31 32 33 34 35 36 37 38 39 40 41 42 43 44 45 46 47 48 49 50
000
ASUS41 KCLE 281110
RWRCLE
OHIO REGIONAL WEATHER ROUNDUP
NATIONAL WEATHER SERVICE WILMINGTON, OH
700 AM EDT FRI AUG 28 2015

NOTE: "FAIR" INDICATES FEW OR NO CLOUDS BELOW 12,000 FEET WITH NO
SIGNIFICANT WEATHER AND/OR OBSTRUCTIONS TO VISIBILITY.

OHZ001>008-015>018-024>027-034-035-043-044-281200-
   NORTHWEST OHIO

CITY           SKY/WX    TMP DP  RH WIND       PRES   REMARKS
DEFIANCE       MOCLDY    52  50  93 CALM      30.20R FOG
FINDLAY        CLEAR     55  53  93 CALM      30.19R FOG
TOLEDO EXPRESS FAIR      50  50 100 CALM      30.19R
TOLEDO EXEC    CLEAR     54  51  90 CALM      30.20R
LIMA           PTCLDY    54  53  97 E5        30.19R FOG
$$

OHZ009>014-019>023-028>033-038-089-281200-
   NORTHEAST OHIO

CITY           SKY/WX    TMP DP  RH WIND       PRES   REMARKS
CLE-HOPKINS    PTCLDY    52  49  89 SW3       30.23R
CLE-LAKEFRONT  CLEAR     58  53  84 SE8       30.20R
CUY CO. ARPT   PTCLDY    54  52  94 CALM      30.22
LORAIN-ELYRIA  CLEAR     50  49  96 CALM      30.21S FOG
ASHTABULA      MOCLDY    47  47 100 CALM      30.23R FOG
AKRON-CANTON   CLEAR     54  51  90 CALM      30.21R
WOOSTER        MOCLDY    46  45  96 CALM      30.22R FOG
MANSFIELD      CLEAR     52  52 100 SE5       30.20R
YOUNGSTOWN     PTCLDY    50  49  96 CALM      30.21R FOG
$$

OHZ042-051>053-060>062-070>072-077>081-281200-
  SOUTHWEST OHIO

CITY           SKY/WX    TMP DP  RH WIND       PRES   REMARKS
CINC-COVINGTON PTCLDY    56  55  97 CALM      30.18R
CINC-LUNKEN    CLEAR     52  52 100 CALM      30.19R
HAMILTON       CLEAR     51  49  92 CALM      30.19R FOG
DAYTON         PTCLDY    54  54 100 CALM      30.20R
WRIGHT-PAT AFB CLEAR     55  54  96 CALM      30.19R
DAYTON GENERAL CLEAR     55  53  93 NE3       30.18R
WILMINGTON     CLEAR     52  50  93 NE5       30.19R
$$

OHZ036-037-039>041-045>050-054>059-063>069-073>076-082>088-281200-
  CENTRAL AND SOUTHEAST OHIO

CITY           SKY/WX    TMP DP  RH WIND       PRES   REMARKS
COLUMBUS       CLEAR     57  54  89 CALM      30.19R
OSU AIRPORT    CLEAR     54  53  97 CALM      30.19S FOG
BOLTON FIELD   CLEAR     50  50 100 CALM      30.20R FOG
RICKENBACK AFB CLEAR     55  53  95 NE5       30.19R
NEWARK         FOG       50  49  96 CALM      30.20R VSB 1
MARION         CLEAR     52  50  93 CALM      30.19R FOG
LANCASTER      FOG       48  47  96 CALM      30.20R VSB 1/2
ZANESVILLE     CLEAR     51  48  89 CALM      30.19R FOG
NEW PHILLY     CLEAR     51  49  92 CALM      30.21R
$$


USA.gov is the U.S. government's official web portal to all federal, state and local government web resources and services.